Flag for United Kingdom Weather past 2 weeks in St. Peter Port, Guernsey, United Kingdom

Now
59 °F

Passing clouds.


Feels Like: 57 °F
Forecast: 57 / 61 °F
Wind: 13 mph from Southwest

Location: Guernsey Airport

Current Time: Oct 23, 2014 at 11:12:55 PM

Latest Report: Oct 23, 2014 at 8:50 PM


Visibility: N/A

Pressure: 30.12 "Hg

Humidity: 100%

Dew point: 59 °F

Location of St. Peter PortLocation

Historic Weather in St. Peter Port — Graph

°F

St. Peter Port temperature yesterday

Maximum temperature yesterday: 59 °F (at 1:50 PM)
Minimum temperature yesterday: 54 °F (at 3:50 AM)
Average temperature yesterday: 55 °F

Past Weeks' High & Low Weather Summary

 TemperatureHumidityPressure
High66 °F (Oct 18, 12:50 PM)100% (Oct 12, 1:20 PM)30.42 "Hg (Oct 12, 1:20 PM)
Low52 °F (Oct 14, 7:50 PM)58% (Oct 21, 8:50 PM)29.42 "Hg (Oct 13, 3:50 AM)
Average58 °F88%29.86 "Hg
* Reported Oct 8 8:20 PM — Oct 23 8:50 PM, St. Peter Port, Weather by CustomWeather, © 2014

Note: Actual official high and low records may vary slightly from our data, if they occured in-between our weather recording intervals... More about our weather records

Advertising

St. Peter Port weather history for previous 24 hours

 ConditionsComfort  
Time TempWeatherWind HumidityBarometerVisibility
8:50 PM
Oct 23
59 °FPassing clouds.13 mph100%30.12 "HgN/A
8:20 PM59 °FPartly cloudy.10 mph100%30.12 "HgN/A
7:50 PM59 °FPassing clouds.14 mph94%30.12 "HgN/A
7:20 PM59 °FPassing clouds.13 mph100%30.12 "HgN/A
6:50 PM59 °FBroken clouds.13 mph100%30.12 "HgN/A
6:20 PM59 °FBroken clouds.15 mph100%30.12 "HgN/A
5:50 PM59 °FPartly sunny.14 mph94%30.12 "HgN/A
5:20 PM59 °FBroken clouds.17 mph94%30.12 "HgN/A
4:50 PM59 °FBroken clouds.12 mph94%30.15 "HgN/A
4:20 PM59 °FDrizzle. Partly sunny.16 mph94%30.15 "HgN/A
3:50 PM59 °FDrizzle. Broken clouds.15 mph94%30.15 "HgN/A
3:20 PM59 °FBroken clouds.16 mph94%30.15 "HgN/A
2:50 PM59 °FPartly sunny.16 mph94%30.15 "HgN/A
2:20 PM59 °FPartly sunny.16 mph94%30.18 "HgN/A
1:50 PM59 °FPartly sunny.14 mph94%30.18 "HgN/A
1:20 PM57 °FPartly sunny.17 mph94%30.18 "HgN/A
12:50 PM57 °FPartly sunny.14 mph94%30.18 "HgN/A
12:20 PM57 °FPartly sunny.14 mph94%30.18 "HgN/A
11:50 AM57 °FPartly sunny.14 mph94%30.21 "HgN/A
11:20 AM57 °FDrizzle. Broken clouds.14 mph94%30.21 "Hg3 mi
10:50 AM57 °FBroken clouds.14 mph88%30.21 "HgN/A
10:20 AM55 °FBroken clouds.15 mph94%30.21 "HgN/A
9:50 AM55 °FDrizzle. Broken clouds.15 mph94%30.21 "HgN/A
9:20 AM55 °FPartly sunny.16 mph94%30.21 "HgN/A
8:50 AM55 °FPartly sunny.17 mph88%30.21 "HgN/A
8:20 AM55 °FPartly cloudy.15 mph88%30.21 "HgN/A
7:50 AM55 °FPartly cloudy.16 mph88%30.21 "HgN/A
7:20 AM55 °FPartly cloudy.12 mph88%30.21 "HgN/A
6:50 AM55 °FPartly cloudy.15 mph88%30.24 "HgN/A
6:20 AM57 °FPassing clouds.10 mph82%30.24 "HgN/A
5:50 AM55 °FPassing clouds.13 mph82%30.24 "HgN/A
5:20 AM55 °FPassing clouds.14 mph82%30.24 "HgN/A
4:50 AM55 °FPassing clouds.12 mph77%30.24 "HgN/A
4:20 AM55 °FPassing clouds.12 mph77%30.24 "HgN/A
3:50 AM55 °FPassing clouds.10 mph77%30.24 "HgN/A
Weather by CustomWeather, © 2014

See weather overviewHow to use our weather pages